Location: Newark
(48.9711°N, 7.9892°E)
Time: 11:45:25
(UTC+00:00)

Envisat - Visible Passes

Search period start: 15 October 2019 00:00
Search period end: 25 October 2019 00:00
Orbit: 764 x 766 km, 98.1° (Epoch: 15 October)

Date Brightness Start Highest point End Pass type
(mag) Time Alt. Az. Time Alt. Az. Time Alt. Az.
15 Oct 3.0 17:17:53 10° SSE 17:22:58 81° ENE 17:28:04 10° NNW visible
15 Oct 6.0 18:59:40 10° WSW 19:02:38 15° W 19:05:36 10° NW visible
16 Oct 4.9 18:20:59 10° SSW 18:25:27 31° W 18:29:57 10° NNW visible
17 Oct 3.6 17:43:28 10° S 17:48:30 62° W 17:53:33 10° NNW visible
18 Oct 3.0 17:06:41 10° SSE 17:11:43 66° ENE 17:16:46 10° N visible
18 Oct 5.7 18:47:39 10° SW 18:51:14 19° W 18:54:49 10° NW visible
19 Oct 6.1 05:12:34 10° NE 05:15:53 17° E 05:19:10 10° SE visible
19 Oct 4.5 18:09:24 10° SSW 18:14:06 38° W 18:18:51 10° NNW visible
20 Oct 3.2 17:32:07 10° S 17:37:12 77° WSW 17:42:19 10° NNW visible
20 Oct 6.2 19:15:36 10° WSW 19:17:06 11° W 19:18:35 10° WNW visible
21 Oct 3.1 16:55:33 10° SE 17:00:29 54° ENE 17:05:26 10° N visible
21 Oct 5.4 18:35:49 10° SW 18:39:50 23° W 18:43:53 10° NW visible
22 Oct 6.3 05:01:54 10° NE 05:04:27 14° E 05:07:01 10° ESE visible
22 Oct 4.1 17:57:54 10° S 18:02:47 46° W 18:07:42 10° NNW visible
23 Oct 3.0 17:20:51 10° SSE 17:25:56 87° ENE 17:31:03 10° NNW visible
23 Oct 6.1 19:03:00 10° WSW 19:05:40 14° W 19:08:19 10° NW visible
24 Oct 5.9 05:26:18 10° NE 05:30:17 23° E 05:34:16 10° SE visible
24 Oct 3.3 16:44:29 10° SE 16:49:17 44° ENE 16:54:05 10° N visible
24 Oct 5.1 18:24:06 10° SSW 18:28:28 28° W 18:32:51 10° NW visible
